Location: El Bakhil
(32.7726°N, 5.5387°W)
Time: 18:30:54
(UTC+00:00)

Envisat - Pass Details

Date: 08 December 2021
Orbit: 764 x 766 km, 98.2° (Epoch: 17 January)

Event Time Altitude Azimuth Distance (km) Brightness Sun altitude
Rises 17:36:10 0° 201° (SSW) 3,216 7.0 -4.7°
Reaches altitude 10° 17:39:00 10° 217° (SW) 2,295 6.6 -5.2°
Maximum altitude 17:42:45 21° 265° (W) 1,676 5.9 -5.9°
Drops below altitude 10° 17:46:31 10° 313° (NW) 2,305 5.8 -6.7°
Sets 17:49:23 0° 330° (NNW) 3,236 6.3 -7.2°
